CZ-6A DEB

Satellite information

Favourite Embed

Satellite Type and Status

DEBRISIN ORBIT

Key statistics

Satellite CZ-6A DEB at a glance.

Uptime

442

Days in orbit

Revolutions

≈ 14.5

Per day

Orbit

LEO

Low Earth Orbit

Inclination

88.8

Latest

Satellite identification and parameters

Extended collection of information and parameters for CZ-6A DEB.

Object identification

Identified? True

Debris? True

Object name: CZ-6A DEB

International designator: 2024-140YQ

Object number (NORAD): 61423

Object ID (CCSDS): 61423

Country: PEOPLES REPUBLIC OF CHINA (PRC)

Current information (Y/N): Y

RCS size: SMALL

Orbital parameters

Period: 99.197 minutes

Inclination: 88.8211 deg

SMA: 7098.377 km

Apoapsis: 815.086 km

Periapsis: 625.399 km

RAAN: 289.7593 deg

Eccentricy: 0.01336127

Argument of periapsis: 45.0892 deg

Mean anomaly: 316.1066 deg

Mean motion: 14.51657445 rev/day

Mean motion (dot): 0.00005607 rev/day2

B* drag term: 0.0012406152 1/REarth

Two-line elements (TLE)

Creation date: Oct. 21, 2025, 3:26 a.m.

Reference frame: TEME

Reference center: EARTH

Epoch: Oct. 20, 2025, 7:47 p.m. UTC

TLE line 0: 0 CZ-6A DEB

TLE line 1: 1 61423U 24140YQ 25293.82452111 .00005607 00000-0 12406-2 0 9995

TLE line 2: 2 61423 88.8211 289.7593 0133613 45.0892 316.1066 14.51657445 61578

Live tracking on map

Real-time ground track for satellite CZ-6A DEB.

In-orbit conjunctions

A list of the most updated potential collisions computed for object CZ-6A DEB.

Target Orbit TCA Probability of collision Miss distance Type
DELTA 1 DEB SSO 2025-07-15 16:31:37 0.0001983283 34.0 (m) DEBRIS
CSTB 1 SSO 2025-05-25 12:55:50 0.00036588 120.0 (m) PAYLOAD
SL-24 R/B SSO 2025-05-12 21:28:51 0.0002031403 138.0 (m) ROCKET BODY
DMSP 5D-2 F11 DEB SSO 2025-02-02 02:51:04 0.0001136206 764.0 (m) DEBRIS
NOAA 16 DEB SSO 2025-01-26 18:24:49 0.0001990574 918.0 (m) DEBRIS

Associated space launch

18 Low Earth Orbit communication satellites with Ku, Q and V band payloads for the G60 constellation operated by Shanghai Spacecom Satellite Technology (SSST) with funding backed by the Shanghai local government. Initial constellation will consist of 1296 satellites by 2027 with long term plans to expand it to 12000 satellites.

CZ-6A DEB was lifted into orbit during the mission ‘Long March 6A | G60 Polar Group 01’, on board a Long March 6A space rocket.

The launch took place on Aug. 6, 2024, 6:42 a.m. from Launch Complex 9A.

For more information about the launch, click the button.

Launch to space Long March 6A | G60 Polar Group 01
Long March 6A | G60 Polar Group 01

Agency: N/A

Status: Launch Successful

Launch date: Aug. 6, 2024, 6:42 a.m. UTC

Rocket: Long March 6A

Launch pad: Launch Complex 9A

Location: Taiyuan Satellite Launch Center, People's Republic of China

...

Latest news about this satellite

News about space launch
Brightness of first Chinese broadband constellation satellites alarms astronomers

The first satellites of a Chinese broadband constellation are significantly brighter than those of Western systems, posing a new challenge for astronomers.

News about space launch
Chinese rocket stage breaks up into cloud of more than 700 pieces of space debris

HELSINKI — A Chinese Long March 6A rocket’s upper stage has fragmented into a cloud of over 700 pieces of space debris, adding to concerns about long-term orbital safety. China […]

News about space launch
China's Thousand Sails Megaconstellation Kicks Off with Dangerous Debris Field

China's Thousand Sails Megaconstellation Kicks Off with Dangerous Debris Field


Newsletter sign-up

Weekly statistics, charts and insights to help you stay on top of the space industry.